Weather History for KMEM - April, 2013

Change the Weather History Date:

Saturday, April 6, 2013

  Actual Average Record
Temperature  
Mean Temperature 60 °F 60 °F  
Max Temperature 74 °F 70 °F 87 °F (1960)
Min Temperature 45 °F 50 °F 32 °F (1966)
Degree Days  
Heating Degree Days 5 7  
Month to date heating degree days 77 43  
Since 1 July heating degree days 2781 2851  
Cooling Degree Days 0 2  
Month to date cooling degree days 0 10  
Year to date cooling degree days 11 30  
Growing Degree Days 9 (Base 50)    
Moisture  
Dew Point 39 °F    
Average Humidity 51    
Maximum Humidity 77    
Minimum Humidity 25    
Precipitation  
Precipitation 0.00 in 0.17 in 2.72 in (1909)
Month to date precipitation 0.49 1.03  
Year to date precipitation 17.44 14.56  
Snow  
Snow 0.00 in 0.00 in T in (1971)
Month to date snowfall 0.0 0.0  
Since 1 July snowfall 0.9 3.8  
Snow Depth 0.00 in    
Sea Level Pressure  
Sea Level Pressure 30.03 in    
Wind  
Wind Speed 9 mph (South)    
Max Wind Speed 24 mph    
Max Gust Speed 31 mph    
Visibility 10 miles    
Events      
T = Trace of Precipitation, MM = Missing Value Source: NWS Daily Summary

Daily Weather History Graph

Daily Weather History Graph

Search for Another Location

Airport or City:

Trip Planner

Search our weather history database for the weather conditions in past years. The results will help you decide how hot, cold, wet, or windy it might be!

Date:

Astronomy

Apr. 06, 2013 Rise Set
Actual Time 6:39 AM CDT 7:25 PM CDT
Civil Twilight 6:13 AM CDT 7:51 PM CDT
Nautical Twilight 5:43 AM CDT 8:21 PM CDT
Astronomical Twilight 5:12 AM CDT 8:52 PM CDT
Moon 4:14 AM CDT (4/6) 4:01 PM CDT (4/6)
Length of Visible Light 13h 37m
Length of Day
12h 46m
Waning Crescent, 15% of the Moon is Illuminated
Apr 6
Waning Crescent
Apr 10
New
Apr 18
First Quarter
Apr 25
Full
May 2
Last Quarter

Hourly Weather History & Observations

Time (CDT) Temp. Dew Point Humidity Pressure Visibility Wind Dir Wind Speed Gust Speed Precip Events Conditions
12:54 AM 48.0 °F 41.0 °F 77% 30.11 in 10.0 mi Calm Calm - N/A   Clear
1:54 AM 50.0 °F 41.0 °F 71% 30.10 in 10.0 mi Calm Calm - N/A   Partly Cloudy
2:54 AM 48.9 °F 39.0 °F 69% 30.08 in 10.0 mi Calm Calm - N/A   Scattered Clouds
3:54 AM 46.0 °F 39.9 °F 79% 30.08 in 10.0 mi Calm Calm - N/A   Partly Cloudy
4:54 AM 48.0 °F 39.0 °F 71% 30.07 in 10.0 mi East 4.6 mph - N/A   Scattered Clouds
5:54 AM 46.9 °F 39.0 °F 74% 30.07 in 10.0 mi Calm Calm - N/A   Mostly Cloudy
6:54 AM 48.0 °F 37.9 °F 68% 30.09 in 10.0 mi South 3.5 mph - N/A   Mostly Cloudy
7:54 AM 52.0 °F 39.9 °F 63% 30.10 in 10.0 mi SSE 5.8 mph - N/A   Mostly Cloudy
8:54 AM 59.0 °F 41.0 °F 51% 30.10 in 10.0 mi SSE 8.1 mph - N/A   Mostly Cloudy
9:54 AM 63.0 °F 39.9 °F 43% 30.10 in 10.0 mi South 12.7 mph - N/A   Mostly Cloudy
10:54 AM 68.0 °F 41.0 °F 37% 30.10 in 10.0 mi South 13.8 mph 24.2 mph N/A   Mostly Cloudy
11:54 AM 71.1 °F 39.9 °F 32% 30.08 in 10.0 mi South 17.3 mph 26.5 mph N/A   Mostly Cloudy
12:54 PM 72.0 °F 39.9 °F 31% 30.06 in 10.0 mi SSW 15.0 mph 19.6 mph N/A   Mostly Cloudy
1:54 PM 73.0 °F 39.9 °F 30% 30.04 in 10.0 mi SSW 17.3 mph 25.3 mph N/A   Mostly Cloudy
2:54 PM 73.0 °F 39.0 °F 29% 30.00 in 10.0 mi SSW 18.4 mph 28.8 mph N/A   Mostly Cloudy
3:54 PM 73.9 °F 36.0 °F 25% 29.96 in 10.0 mi South 21.9 mph 25.3 mph N/A   Mostly Cloudy
4:54 PM 73.0 °F 35.1 °F 25% 29.95 in 10.0 mi SSW 15.0 mph 23.0 mph N/A   Scattered Clouds
5:54 PM 72.0 °F 36.0 °F 27% 29.94 in 10.0 mi SSW 12.7 mph 24.2 mph N/A   Partly Cloudy
6:54 PM 70.0 °F 37.0 °F 30% 29.94 in 10.0 mi SSW 12.7 mph - N/A   Partly Cloudy
7:54 PM 66.0 °F 39.0 °F 37% 29.94 in 10.0 mi SSW 8.1 mph - N/A   Scattered Clouds
8:54 PM 63.0 °F 39.9 °F 43% 29.95 in 10.0 mi SSW 5.8 mph - N/A   Partly Cloudy
9:54 PM 61.0 °F 42.1 °F 50% 29.97 in 10.0 mi SSW 4.6 mph - N/A   Partly Cloudy
10:54 PM 57.9 °F 43.0 °F 58% 29.99 in 10.0 mi SSW 6.9 mph - N/A   Partly Cloudy
11:54 PM 57.0 °F 43.0 °F 59% 29.98 in 10.0 mi South 9.2 mph - N/A   Partly Cloudy